[[{"header":{"parameterUnit":"m.s-1","parameterCategory":1,"la1":30.2991,"la2":30.254,"lo1":-89.0895,"lo2":-89.0444,"dy":0.0017,"dx":0.0017,"nx":28,"ny":28,"refTime":"2025-04-04T03:00:00:Z","depth":0,"parameterNumber":2,"parameterNumberName":"U-component_of_WINDS"},"data":[0,0,0,0,0,0,0,0,0,0,0,0,0,0,0,0,0,0,0,0,0,0,0,0,0,0,0,0,0,0,0,0,0,0,0,0,0,0,0,0,0,0,0,0,0,0,0,0,0,0,0,0,0,0,0,0,0,0,-4.0585,-4.0587,0,-4.0715,-4.0717,-4.0718,-4.0748,-4.0748,-4.0747,-4.0746,-4.0878,-4.0882,-4.0887,0,0,0,0,0,0,0,0,0,0,0,0,0,-4.0364,-4.0368,-4.0585,-4.0587,-4.0589,-4.0715,-4.0717,-4.0718,-4.0749,-4.0748,-4.0746,-4.0745,-4.0877,-4.0882,-4.0887,0,0,0,0,0,0,0,0,0,0,0,0,0,-4.0474,-4.0369,-4.0585,-4.0619,-4.0623,-4.0714,-4.0717,-4.0719,-4.0749,-4.0747,-4.0746,-4.0745,-4.0875,-4.0881,-4.0888,-4.0954,0,0,-4.0908,-4.091,0,0,0,0,0,0,0,0,-4.0467,-4.0482,-4.0612,-4.0617,-4.0622,-4.0714,-4.0687,-4.0798,-4.0749,-4.0701,-4.0746,-4.0744,-4.0825,-4.0835,-4.0862,-4.096,-4.0966,-4.0908,-4.0912,-4.0915,-4.0917,0,0,0,0,0,0,0,-4.046,-4.0476,-4.0637,-4.0614,-4.062,-4.0628,-4.0642,-4.0708,-4.0769,-4.0705,-4.0708,-4.0723,-4.0827,-4.0856,-4.0866,-4.0968,-4.0908,-4.0914,-4.0918,-4.092,-4.1128,-4.1129,0,0,0,0,0,0,-4.0446,-4.047,-4.0633,-4.0641,-4.054,-4.0633,-4.0648,-4.0686,-4.0768,-4.0779,-4.0724,-4.0724,-4.0846,-4.0858,-4.087,-4.0953,-4.0915,-4.0921,-4.0925,-4.1126,-4.1128,-4.113,0,0,0,0,0,0,-4.0441,-4.046,-4.0627,-4.0556,-4.0578,-4.0638,-4.068,-4.0689,-4.0718,-4.0782,-4.0793,-4.0742,-4.0845,-4.0861,-4.0933,-4.0958,-4.0924,-4.093,-4.1124,-4.1127,-4.1129,-4.112,0,0,0,0,0,0,-4.0435,-4.0459,-4.0484,-4.0556,-4.0581,-4.0688,-4.0681,-4.0693,-4.0729,-4.0731,-4.0802,-4.0813,-4.0845,-4.0923,-4.094,-4.0967,-4.0935,-4.1122,-4.1125,-4.1128,-4.1118,-4.1121,-4.1124,0,0,0,0,0,-4.0427,-4.0476,-4.0485,-4.0505,-4.0615,-4.0689,-4.0703,-4.074,-4.0731,-4.0758,-4.0799,-4.0811,-4.0953,-4.0931,-4.0949,-4.0978,-4.1121,-4.1124,-4.1128,-4.1116,-4.1121,-4.1124,0,0,0,0,0,0,-4.0405,-4.0486,-4.0497,-4.0572,-4.0623,-4.0694,-4.0728,-4.0743,-4.0798,-4.0797,-4.084,-4.0856,-4.0925,-4.0959,-4.0932,-4.1047,-4.1037,-4.1044,-4.1022,-4.1026,-4.103,-4.1019,-4.094,0,0,0,0,0,-4.0409,-4.0463,-4.0531,-4.059,-4.0615,-4.0667,-4.0701,-4.0725,-4.078,-4.0802,-4.0848,-4.0901,-4.0958,-4.0995,-4.105,-4.1124,-4.114,-4.1153,-4.1157,-4.1159,-4.1164,-4.1205,-4.1212,-4.1142,-4.1141,-4.1141,0,0,-4.0418,-4.0469,-4.05,-4.0587,-4.063,-4.0684,-4.0686,-4.0743,-4.0784,-4.0811,-4.0881,-4.0917,-4.0979,-4.1052,-4.1087,-4.1083,-4.1188,-4.1164,-4.1165,-4.1169,-4.121,-4.1216,-4.1222,-4.1144,-4.1144,-4.1143,0,0,-4.0461,-4.0505,-4.0559,-4.0602,-4.0667,-4.0702,-4.0714,-4.0784,-4.0809,-4.088,-4.0902,-4.0951,-4.1048,-4.1091,-4.1126,-4.1187,-4.1199,-4.1204,-4.122,-4.126,-4.1265,-4.127,-4.1291,-4.1298,-4.121,-4.121,-4.121,0,-4.0463,-4.0546,-4.0585,-4.0641,-4.0679,-4.0706,-4.0761,-4.0801,-4.0881,-4.0906,-4.0901,-4.1024,-4.1068,-4.1151,-4.1166,-4.1194,-4.1209,-4.1195,-4.1261,-4.1267,-4.1272,-4.1292,-4.13,-4.121,-4.121,-4.121,-4.121,0,-4.0545,-4.0602,-4.0638,-4.0714,-4.0756,-4.0811,-4.0858,-4.0896,-4.0917,-4.0952,-4.1025,-4.1079,-4.1146,-4.1168,-4.1188,-4.1254,-4.125,-4.1253,-4.1243,-4.1278,-4.1298,-4.1306,-4.121,-4.121,-4.121,-4.121,0,0,-4.0576,-4.0674,-4.0686,-4.0721,-4.0795,-4.084,-4.0897,-4.0963,-4.0994,-4.1049,-4.1097,-4.118,-4.1183,-4.1223,-4.1249,-4.1284,-4.1327,-4.1283,-4.1285,-4.1288,-4.1402,-4.1398,-4.1406,-4.1337,-4.1339,-4.134,-4.1396,0,-4.0627,-4.0729,-4.0766,-4.085,-4.0902,-4.093,-4.098,-4.1031,-4.1066,-4.1116,-4.1155,-4.1212,-4.1213,-4.1236,-4.1273,-4.1314,-4.135,-4.1311,-4.1382,-4.1384,-4.1363,-4.1417,-4.1412,-4.1463,-4.1404,-4.1406,-4.1407,0,-4.0699,-4.0755,-4.0843,-4.0911,-4.0935,-4.0979,-4.1042,-4.109,-4.1149,-4.1172,-4.1216,-4.124,-4.1301,-4.1289,-4.1373,-4.1345,-4.1377,-4.1402,-4.1405,-4.1411,-4.1396,-4.1423,-4.148,-4.1487,-4.1419,-4.1418,-4.1417,0,-4.0711,-4.0808,-4.0874,-4.0903,-4.0984,-4.1014,-4.105,-4.1107,-4.1145,-4.1201,-4.1225,-4.1288,-4.1321,-4.1369,-4.1409,-4.1397,-4.1489,-4.1481,-4.1509,-4.1508,-4.1526,-4.1524,-4.1587,-4.1549,-4.1549,-4.1549,-4.1549,0,-4.0763,-4.0816,-4.088,-4.092,-4.0981,-4.1024,-4.1082,-4.1119,-4.1171,-4.1218,-4.1247,-4.1292,-4.1343,-4.1394,-4.1426,-4.149,-4.1506,-4.1526,-4.1533,-4.1522,-4.1519,-4.1542,-4.1539,-4.1551,-4.155,-4.155,-4.155,0,-4.0786,-4.0831,-4.0904,-4.0975,-4.0995,-4.1036,-4.1097,-4.1137,-4.1174,-4.1234,-4.1251,-4.1308,-4.137,-4.1415,-4.1495,-4.1517,-4.1585,-4.1594,-4.1565,-4.1568,-4.1594,-4.159,-4.1672,-4.1685,-4.164,-4.164,-4.164,0,-4.0815,-4.0856,-4.0932,-4.0966,-4.1001,-4.1056,-4.1094,-4.1139,-4.1177,-4.1248,-4.1279,-4.1343,-4.1396,-4.1494,-4.1543,-4.1604,-4.1613,-4.1638,-4.1623,-4.161,-4.1612,-4.1608,-4.1612,-4.1639,-4.164,-4.164,-4.164,0,-4.0861,-4.0882,-4.0936,-4.0998,-4.1043,-4.1094,-4.1146,-4.1172,-4.1226,-4.1268,-4.1331,-4.1373,-4.1455,-4.1517,-4.1584,-4.1621,-4.1639,-4.1645,-4.1655,-4.1642,-4.1624,-4.1633,-4.1569,-4.1642,-4.1642,-4.1642,-4.1642,-4.1642,-4.0888,-4.0925,-4.0984,-4.1044,-4.1087,-4.1135,-4.1176,-4.1218,-4.1272,-4.1341,-4.1365,-4.143,-4.1489,-4.158,-4.1617,-4.1669,-4.1669,-4.1683,-4.1686,-4.1689,-4.1687,-4.1617,-4.1682,-4.1682,-4.1682,-4.1682,-4.1682,0,-4.0935,-4.0974,-4.1028,-4.1099,-4.1146,-4.116,-4.1218,-4.1256,-4.1313,-4.1366,-4.1418,-4.1491,-4.1553,-4.1607,-4.1671,-4.1702,-4.1712,-4.1717,-4.1714,-4.1722,-4.1685,-4.1669,-4.1707,-4.1707,-4.1707,-4.1707,-4.1707,-4.1707,-4.0964,-4.1029,-4.1056,-4.1143,-4.1183,-4.1246,-4.1278,-4.1322,-4.1365,-4.1445,-4.1496,-4.1531,-4.1585,-4.1653,-4.171,-4.1724,-4.1746,-4.1748,-4.1764,-4.1728,-4.1725,-4.1722,-4.1707,-4.1753,-4.1753,-4.1797,-4.1798,-4.1798]},{"header":{"parameterUnit":"m.s-1","parameterCategory":1,"la1":30.2991,"la2":30.254,"lo1":-89.0895,"lo2":-89.0444,"dy":0.0017,"dx":0.0017,"nx":28,"ny":28,"refTime":"2025-04-04T03:00:00:Z","depth":0,"parameterNumber":3,"parameterNumberName":"V-component_of_WINDS"},"data":[0,0,0,0,0,0,0,0,0,0,0,0,0,0,0,0,0,0,0,0,0,0,0,0,0,0,0,0,0,0,0,0,0,0,0,0,0,0,0,0,0,0,0,0,0,0,0,0,0,0,0,0,0,0,0,0,0,0,4.8328,4.8329,0,4.8444,4.8445,4.8446,4.8456,4.8454,4.8453,4.8452,4.8568,4.8572,4.8576,0,0,0,0,0,0,0,0,0,0,0,0,0,4.8114,4.8118,4.8328,4.8329,4.8331,4.8443,4.8445,4.8447,4.8456,4.8454,4.8453,4.8451,4.8567,4.8572,4.8577,0,0,0,0,0,0,0,0,0,0,0,0,0,4.8216,4.812,4.8327,4.8349,4.8352,4.8443,4.8445,4.8447,4.8456,4.8454,4.8452,4.8451,4.8565,4.8571,4.8577,4.8654,0,0,4.8597,4.86,0,0,0,0,0,0,0,0,4.821,4.8224,4.8344,4.8348,4.8351,4.8433,4.8412,4.8516,4.8457,4.8417,4.8452,4.845,4.8525,4.8534,4.856,4.866,4.8665,4.8598,4.8601,4.8604,4.8606,0,0,0,0,0,0,0,4.8203,4.8219,4.8373,4.8346,4.835,4.8353,4.8365,4.8432,4.848,4.842,4.8421,4.8435,4.8526,4.8554,4.8563,4.8666,4.8597,4.8603,4.8607,4.8609,4.8838,4.884,0,0,0,0,0,0,4.8192,4.8213,4.837,4.8377,4.8275,4.8358,4.8372,4.8409,4.8479,4.8488,4.8436,4.8435,4.8544,4.8555,4.8567,4.8664,4.8604,4.861,4.8614,4.8836,4.8838,4.8841,0,0,0,0,0,0,4.8188,4.8206,4.8365,4.8296,4.8316,4.8364,4.8405,4.8412,4.844,4.8491,4.8499,4.8456,4.8543,4.8558,4.8633,4.8668,4.8613,4.8619,4.8833,4.8837,4.884,4.8856,0,0,0,0,0,0,4.8182,4.8205,4.8234,4.8296,4.832,4.843,4.8407,4.8416,4.8451,4.845,4.8512,4.852,4.8542,4.8624,4.864,4.8675,4.8624,4.883,4.8835,4.8839,4.8853,4.886,4.8866,0,0,0,0,0,4.8174,4.8233,4.8236,4.8254,4.8358,4.8432,4.8445,4.847,4.8454,4.8484,4.8518,4.8518,4.8661,4.8631,4.8649,4.8688,4.8828,4.8833,4.8838,4.885,4.8858,4.8865,0,0,0,0,0,0,4.8172,4.8241,4.8245,4.8326,4.8373,4.8433,4.8472,4.8478,4.853,4.8527,4.8556,4.8569,4.8645,4.8673,4.8639,4.8767,4.8743,4.8752,4.8746,4.8754,4.876,4.8752,4.8629,0,0,0,0,0,4.8182,4.8237,4.8294,4.8359,4.8383,4.8424,4.8457,4.8473,4.8522,4.8542,4.8581,4.8628,4.8685,4.8721,4.8775,4.8857,4.8871,4.8892,4.8898,4.8903,4.8911,4.8959,4.897,4.8857,4.8857,4.8857,0,0,4.8201,4.8245,4.8278,4.836,4.8399,4.8456,4.844,4.85,4.8543,4.8551,4.8625,4.8656,4.8711,4.8791,4.8828,4.8817,4.8945,4.891,4.8913,4.8919,4.8966,4.8976,4.8986,4.8861,4.886,4.886,0,0,4.8266,4.8304,4.8365,4.8404,4.8463,4.849,4.8505,4.8565,4.8586,4.8661,4.8669,4.872,4.8815,4.8855,4.8888,4.897,4.8974,4.8987,4.9021,4.9067,4.9076,4.9084,4.9116,4.9126,4.8994,4.8994,4.8994,0,4.8282,4.8368,4.8394,4.8456,4.8492,4.8504,4.8566,4.8602,4.8676,4.8701,4.8688,4.881,4.8847,4.8938,4.8959,4.8984,4.9003,4.898,4.9073,4.9081,4.9089,4.9119,4.9131,4.8996,4.8995,4.8995,4.8995,0,4.8387,4.8446,4.8488,4.8561,4.8602,4.8662,4.8699,4.8737,4.875,4.8778,4.8856,4.8902,4.8967,4.899,4.9001,4.9083,4.9075,4.9067,4.9044,4.9101,4.913,4.9142,4.8998,4.8997,4.8997,4.8996,0,0,4.8453,4.8541,4.8556,4.859,4.8657,4.8704,4.8766,4.8831,4.8864,4.8915,4.8968,4.905,4.9044,4.9081,4.9098,4.9139,4.9204,4.9126,4.9128,4.9141,4.9299,4.9306,4.9319,4.9206,4.9209,4.921,4.9295,0,4.8527,4.8638,4.8665,4.8761,4.8818,4.883,4.8885,4.8932,4.8961,4.9013,4.9044,4.9102,4.9089,4.9112,4.9153,4.9187,4.9237,4.9181,4.9257,4.926,4.9245,4.9334,4.9341,4.9419,4.9307,4.9309,4.931,0,4.8627,4.8683,4.8784,4.8847,4.8871,4.892,4.8983,4.9032,4.9086,4.9104,4.9147,4.9161,4.9226,4.9199,4.9291,4.9253,4.9286,4.9308,4.9311,4.932,4.9289,4.9347,4.9444,4.9456,4.9328,4.9326,4.9325,0,4.8669,4.8768,4.8842,4.8871,4.8944,4.8979,4.9011,4.9063,4.9102,4.9156,4.9182,4.9243,4.9276,4.9324,4.9353,4.933,4.9444,4.9418,4.9462,4.9461,4.9486,4.9484,4.9591,4.9504,4.9504,4.9503,4.9503,0,4.8749,4.8812,4.8862,4.8908,4.8979,4.9009,4.9079,4.9111,4.9158,4.9211,4.9224,4.9274,4.9309,4.9364,4.9387,4.9461,4.9475,4.9492,4.9498,4.9492,4.9491,4.9515,4.9511,4.9506,4.9506,4.9505,4.9505,0,4.8807,4.8844,4.8926,4.899,4.9008,4.9057,4.9112,4.9157,4.9187,4.9254,4.9271,4.9317,4.9382,4.9417,4.9497,4.9513,4.9597,4.9598,4.9579,4.9582,4.9624,4.962,4.9752,4.9771,4.9669,4.967,4.9671,0,4.8857,4.8906,4.8976,4.9013,4.9046,4.9105,4.9145,4.9177,4.9218,4.9285,4.9322,4.9388,4.9443,4.9547,4.9587,4.965,4.9654,4.9696,4.9663,4.9657,4.9657,4.9655,4.9661,4.9702,4.9703,4.9704,4.9704,0,4.8943,4.8959,4.9016,4.9081,4.9128,4.918,4.9231,4.926,4.93,4.9346,4.9413,4.9456,4.9539,4.9605,4.9671,4.9704,4.9712,4.9714,4.9728,4.9723,4.9711,4.9721,4.9597,4.9711,4.971,4.971,4.971,4.9709,4.9001,4.9046,4.9103,4.9166,4.9208,4.9256,4.9303,4.9339,4.9396,4.9468,4.9483,4.9555,4.961,4.9699,4.9734,4.9791,4.9783,4.9802,4.9807,4.9812,4.9815,4.9701,4.9803,4.9803,4.9803,4.9803,4.9803,0,4.9089,4.9127,4.9185,4.9257,4.9308,4.9311,4.9368,4.941,4.9474,4.9525,4.9579,4.9658,4.9722,4.9769,4.9835,4.9871,4.9877,4.9888,4.9886,4.9894,4.9818,4.9801,4.9883,4.9883,4.9883,4.9883,4.9883,4.9883,4.9141,4.9219,4.9242,4.934,4.9377,4.9449,4.9482,4.9527,4.9568,4.9655,4.971,4.974,4.979,4.986,4.9919,4.9931,4.9956,4.9967,4.998,4.9908,4.9899,4.9891,4.9875,4.9972,4.9972,5.0052,5.0053,5.0053]}]]